This is the latest recevied weather packets stored in our database for station/object AB1AU. If no packets are shown the sender has not sent any weather packets the latest 10 day(s).
| Time | Temp. | Humidity | Pressure | Rain* | Wind** | Luminosity | Snow |
|---|---|---|---|---|---|---|---|
| 1777408030 | 17.78° C | 31% | 1021.7 hPa | 0 mm | - | 207 W/m² | - |
| 1777407728 | 17.78° C | 32% | 1022 hPa | 0 mm | - | 179 W/m² | - |
| 1777407428 | 18.33° C | 32% | 1022 hPa | 0 mm | - | 295 W/m² | - |
| 1777407123 | 17.78° C | 32% | 1022.2 hPa | 0 mm | - | 181 W/m² | - |
| 1777406819 | 18.89° C | 31% | 1022.1 hPa | 0 mm | - | 336 W/m² | - |
| 1777406514 | 18.89° C | 32% | 1022.3 hPa | 0 mm | - | 391 W/m² | - |
| 1777406209 | 18.89° C | 32% | 1022.1 hPa | 0 mm | - | 372 W/m² | - |
| 1777405909 | 18.33° C | 34% | 1022 hPa | 0 mm | - | 317 W/m² | - |
| 1777405605 | 18.33° C | 34% | 1021.9 hPa | 0 mm | - | 312 W/m² | - |
| 1777405303 | 18.33° C | 34% | 1022.1 hPa | 0 mm | - | 435 W/m² | - |
| 1777405003 | 18.89° C | 34% | 1022 hPa | 0 mm | - | 260 W/m² | - |
| 1777404698 | 18.89° C | 34% | 1022.1 hPa | 0 mm | - | 361 W/m² | - |
| 1777404394 | 18.89° C | 33% | 1022 hPa | 0 mm | - | 250 W/m² | - |
| 1777404091 | 18.89° C | 31% | 1022 hPa | 0 mm | - | 195 W/m² | - |
| 1777403787 | 18.89° C | 32% | 1021.9 hPa | 0 mm | - | 320 W/m² | - |
| 1777403485 | 18.89° C | 33% | 1022.2 hPa | 0 mm | - | 160 W/m² | - |
| 1777403180 | 19.44° C | 33% | 1022.1 hPa | 0 mm | - | 206 W/m² | - |
| 1777402875 | 19.44° C | 31% | 1022 hPa | 0 mm | - | 127 W/m² | - |
| 1777402572 | 18.89° C | 32% | 1022.1 hPa | 0 mm | - | 145 W/m² | - |
| 1777402270 | 18.89° C | 32% | 1022.2 hPa | 0 mm | - | 47 W/m² | - |
| 1777401964 | 19.44° C | 30% | 1022.3 hPa | 0 mm | - | 180 W/m² | - |
| 1777401663 | 19.44° C | 32% | 1022.4 hPa | 0 mm | - | 195 W/m² | - |
| 1777401361 | 19.44° C | 31% | 1022.4 hPa | 0 mm | - | 379 W/m² | - |
| 1777401056 | 20° C | 30% | 1022.4 hPa | 0 mm | - | 47 W/m² | - |
| 1777400751 | 19.44° C | 32% | 1022.5 hPa | 0 mm | - | 525 W/m² | - |
* Rain latest hour (hover to see other rain measurements)
** Current wind speed in m/s (hover to see current wind gust speed)